AXB2971 VOMM-VOBL

Flight info

Callsign AXB2971
Flight time 0h 34m
Altitude 20000
Route MMV W117 BIA
Aircraft B738/M-SDE2E3FGHIRWXY/LB1

Departure

Time 2026-04-23 14:25
Airport Chennai International Airport (VOMM)

Arrival

Time 2026-04-23 14:59
Airport Kempegowda International Airport Bengaluru (VOBL)
Time Latitude Longitude Altitude Speed Heading
2026-04-23 13:48 12.98321 80.16319 59 ft 0 kts 161°
2026-04-23 13:51 12.98332 80.16316 59 ft 2 kts 161°
2026-04-23 13:51 12.98335 80.16315 59 ft 0 kts 161°
2026-04-23 14:13 12.98344 80.16312 59 ft 2 kts 161°
2026-04-23 14:13 12.98359 80.16306 59 ft 2 kts 162°
2026-04-23 14:14 12.98374 80.16303 59 ft 2 kts 185°
2026-04-23 14:14 12.98388 80.16307 59 ft 2 kts 206°
2026-04-23 14:14 12.98401 80.16316 59 ft 2 kts 229°
2026-04-23 14:14 12.98408 80.16328 59 ft 0 kts 250°
2026-04-23 14:15 12.98410 80.16335 59 ft 1 kts 253°
2026-04-23 14:15 12.98410 80.16336 59 ft 0 kts 253°
2026-04-23 14:17 12.98408 80.16329 59 ft 4 kts 253°
2026-04-23 14:17 12.98390 80.16270 59 ft 12 kts 246°
2026-04-23 14:17 12.98358 80.16191 59 ft 11 kts 249°
2026-04-23 14:18 12.98346 80.16112 59 ft 14 kts 266°
2026-04-23 14:18 12.98305 80.15987 59 ft 19 kts 249°
2026-04-23 14:18 12.98290 80.15916 59 ft 9 kts 279°
2026-04-23 14:18 12.98305 80.15859 59 ft 7 kts 285°
2026-04-23 14:19 12.98318 80.15807 59 ft 9 kts 284°
2026-04-23 14:19 12.98340 80.15728 59 ft 14 kts 286°
2026-04-23 14:19 12.98374 80.15604 59 ft 20 kts 285°
2026-04-23 14:19 12.98385 80.15565 59 ft 0 kts 285°
2026-04-23 14:20 12.98387 80.15554 59 ft 5 kts 286°
2026-04-23 14:20 12.98412 80.15479 59 ft 15 kts 296°
2026-04-23 14:20 12.98497 80.15517 59 ft 18 kts 70°
2026-04-23 14:20 12.98506 80.15542 59 ft 0 kts 68°
2026-04-23 14:24 12.98538 80.15627 59 ft 43 kts 69°
2026-04-23 14:24 12.98749 80.16186 59 ft 123 kts 69°
2026-04-23 14:24 12.99136 80.17216 174 ft 177 kts 69°
2026-04-23 14:25 12.99579 80.18381 1079 ft 176 kts 68°
2026-04-23 14:25 13.00034 80.19579 1807 ft 191 kts 69°
2026-04-23 14:25 13.00528 80.20895 2311 ft 210 kts 69°
2026-04-23 14:25 13.01077 80.22357 2758 ft 232 kts 69°
2026-04-23 14:26 13.01698 80.24010 3383 ft 251 kts 69°
2026-04-23 14:26 13.02359 80.25729 4088 ft 267 kts 64°
2026-04-23 14:26 13.03479 80.27261 4929 ft 275 kts 38°
2026-04-23 14:26 13.05177 80.28149 5794 ft 281 kts 14°
2026-04-23 14:27 13.07145 80.28262 5978 ft 286 kts 350°
2026-04-23 14:27 13.08996 80.27482 6013 ft 299 kts 322°
2026-04-23 14:27 13.10281 80.25871 7050 ft 296 kts 295°
2026-04-23 14:27 13.10866 80.23907 8169 ft 292 kts 279°
2026-04-23 14:28 13.11161 80.21811 9019 ft 296 kts 277°
2026-04-23 14:28 13.11446 80.19776 9939 ft 297 kts 278°
2026-04-23 14:28 13.11751 80.17657 10487 ft 312 kts 278°
2026-04-23 14:28 13.12082 80.15344 10707 ft 337 kts 278°
2026-04-23 14:29 13.12428 80.12922 10968 ft 357 kts 278°
2026-04-23 14:29 13.12800 80.10319 11085 ft 380 kts 278°
2026-04-23 14:29 13.13195 80.07552 11264 ft 398 kts 278°
2026-04-23 14:29 13.13603 80.04688 11849 ft 403 kts 278°
2026-04-23 14:30 13.14023 80.01739 12308 ft 411 kts 278°
2026-04-23 14:30 13.14446 79.98766 13040 ft 411 kts 278°
2026-04-23 14:30 13.14871 79.95777 13471 ft 419 kts 278°
2026-04-23 14:30 13.15301 79.92750 14218 ft 417 kts 278°
2026-04-23 14:31 13.15733 79.89710 14598 ft 426 kts 278°
2026-04-23 14:31 13.16165 79.86661 15315 ft 423 kts 278°
2026-04-23 14:31 13.16600 79.83594 15690 ft 431 kts 278°
2026-04-23 14:31 13.17040 79.80484 16288 ft 431 kts 278°
2026-04-23 14:32 13.17481 79.77371 16720 ft 436 kts 278°
2026-04-23 14:32 13.17929 79.74199 17256 ft 437 kts 278°
2026-04-23 14:32 13.18373 79.71054 17699 ft 441 kts 278°
2026-04-23 14:32 13.18824 79.67857 18155 ft 443 kts 278°
2026-04-23 14:33 13.19276 79.64653 18618 ft 446 kts 278°
2026-04-23 14:33 13.19736 79.61382 19004 ft 450 kts 278°
2026-04-23 14:33 13.20186 79.58186 19495 ft 450 kts 278°
2026-04-23 14:33 13.20648 79.54897 19836 ft 454 kts 278°
2026-04-23 14:34 13.21106 79.51635 19973 ft 454 kts 278°
2026-04-23 14:34 13.21565 79.48366 19964 ft 455 kts 278°
2026-04-23 14:34 13.22022 79.45104 19967 ft 455 kts 278°
2026-04-23 14:34 13.22473 79.41882 19968 ft 454 kts 278°
2026-04-23 14:35 13.22923 79.38664 19966 ft 454 kts 278°
2026-04-23 14:35 13.23388 79.35342 19966 ft 454 kts 278°
2026-04-23 14:35 13.23845 79.32066 19966 ft 454 kts 278°
2026-04-23 14:35 13.24301 79.28799 19966 ft 454 kts 278°
2026-04-23 14:36 13.24757 79.25527 19966 ft 454 kts 278°
2026-04-23 14:36 13.25200 79.22344 19966 ft 454 kts 278°
2026-04-23 14:36 13.25643 79.19160 19966 ft 454 kts 278°
2026-04-23 14:36 13.26095 79.15908 19966 ft 454 kts 278°
2026-04-23 14:37 13.26539 79.12709 19966 ft 454 kts 278°
2026-04-23 14:37 13.26989 79.09471 19966 ft 454 kts 278°
2026-04-23 14:37 13.27444 79.06188 19966 ft 454 kts 278°
2026-04-23 14:37 13.27894 79.02934 19966 ft 454 kts 278°
2026-04-23 14:38 13.28338 78.99723 19966 ft 454 kts 278°
2026-04-23 14:38 13.28788 78.96454 19966 ft 454 kts 277°
2026-04-23 14:38 13.29100 78.93264 19957 ft 453 kts 273°
2026-04-23 14:38 13.29124 78.90131 19509 ft 440 kts 268°
2026-04-23 14:39 13.28952 78.87045 18872 ft 430 kts 266°
2026-04-23 14:39 13.28768 78.84023 18202 ft 423 kts 266°
2026-04-23 14:39 13.28587 78.80950 17321 ft 420 kts 266°
2026-04-23 14:39 13.28401 78.78020 16942 ft 411 kts 266°
2026-04-23 14:40 13.28200 78.75000 16696 ft 421 kts 266°
2026-04-23 14:40 13.27986 78.71886 16434 ft 428 kts 266°
2026-04-23 14:40 13.27770 78.68800 16177 ft 426 kts 266°
2026-04-23 14:40 13.27551 78.65713 15919 ft 423 kts 266°
2026-04-23 14:41 13.27328 78.62601 15659 ft 421 kts 266°
2026-04-23 14:41 13.27109 78.59559 15404 ft 420 kts 266°
2026-04-23 14:41 13.26887 78.56504 15145 ft 418 kts 266°
2026-04-23 14:41 13.26669 78.53494 14968 ft 415 kts 266°
2026-04-23 14:42 13.26462 78.50466 14969 ft 415 kts 267°
2026-04-23 14:42 13.26408 78.47411 14966 ft 417 kts 271°
2026-04-23 14:42 13.26640 78.44461 14965 ft 417 kts 277°
2026-04-23 14:42 13.27059 78.41489 14966 ft 417 kts 279°
2026-04-23 14:43 13.27505 78.38506 14965 ft 417 kts 279°
2026-04-23 14:43 13.27915 78.35798 14965 ft 417 kts 279°
2026-04-23 14:43 13.28360 78.32913 14932 ft 412 kts 279°
2026-04-23 14:43 13.28802 78.30075 14190 ft 407 kts 279°
2026-04-23 14:44 13.29256 78.27183 13654 ft 395 kts 279°
2026-04-23 14:44 13.29695 78.24398 12803 ft 394 kts 279°
2026-04-23 14:44 13.30141 78.21579 12073 ft 388 kts 279°
2026-04-23 14:44 13.30429 78.18780 11285 ft 385 kts 272°
2026-04-23 14:45 13.30470 78.16003 10520 ft 381 kts 270°
2026-04-23 14:45 13.30493 78.13290 9985 ft 372 kts 271°
2026-04-23 14:45 13.30531 78.10572 9968 ft 371 kts 271°
2026-04-23 14:45 13.30568 78.07834 9971 ft 378 kts 271°
2026-04-23 14:46 13.30606 78.05098 9958 ft 379 kts 271°
2026-04-23 14:46 13.30644 78.02360 9962 ft 378 kts 271°
2026-04-23 14:46 13.30682 77.99631 9964 ft 378 kts 271°
2026-04-23 14:46 13.30720 77.96860 9965 ft 378 kts 271°
2026-04-23 14:47 13.30758 77.94114 9965 ft 378 kts 271°
2026-04-23 14:47 13.30795 77.91416 9955 ft 375 kts 271°
2026-04-23 14:47 13.30831 77.88767 9787 ft 356 kts 271°
2026-04-23 14:47 13.30865 77.86270 9659 ft 338 kts 271°
2026-04-23 14:48 13.30897 77.83843 9229 ft 332 kts 271°
2026-04-23 14:48 13.30929 77.81445 8766 ft 327 kts 271°
2026-04-23 14:48 13.30961 77.79057 8232 ft 324 kts 271°
2026-04-23 14:48 13.30987 77.76726 7711 ft 322 kts 270°
2026-04-23 14:49 13.31006 77.74393 7186 ft 319 kts 270°
2026-04-23 14:49 13.31025 77.72078 6663 ft 317 kts 270°
2026-04-23 14:49 13.31044 77.69758 6141 ft 314 kts 270°
2026-04-23 14:49 13.31062 77.67548 5954 ft 307 kts 270°
2026-04-23 14:50 13.31079 77.65352 5973 ft 313 kts 270°
2026-04-23 14:50 13.31096 77.63139 5955 ft 301 kts 270°
2026-04-23 14:50 13.31114 77.61060 5961 ft 296 kts 270°
2026-04-23 14:50 13.31129 77.58906 5974 ft 300 kts 270°
2026-04-23 14:51 13.31144 77.56838 5951 ft 284 kts 270°
2026-04-23 14:51 13.31159 77.54853 5960 ft 268 kts 270°
2026-04-23 14:51 13.31173 77.52917 5969 ft 268 kts 270°
2026-04-23 14:51 13.31187 77.51035 5964 ft 263 kts 270°
2026-04-23 14:52 13.31200 77.49195 5961 ft 247 kts 270°
2026-04-23 14:52 13.31099 77.47456 5958 ft 231 kts 255°
2026-04-23 14:52 13.30343 77.46053 5966 ft 221 kts 222°
2026-04-23 14:52 13.29008 77.45280 5987 ft 224 kts 195°
2026-04-23 14:53 13.27499 77.44900 5989 ft 223 kts 194°
2026-04-23 14:53 13.25987 77.44504 5955 ft 214 kts 194°
2026-04-23 14:53 13.24601 77.44162 5952 ft 206 kts 187°
2026-04-23 14:53 13.23218 77.44342 5977 ft 201 kts 156°
2026-04-23 14:54 13.22040 77.45084 6002 ft 194 kts 134°
2026-04-23 14:54 13.21304 77.46198 5995 ft 189 kts 118°
2026-04-23 14:54 13.20866 77.47475 5985 ft 190 kts 93°
2026-04-23 14:54 13.20889 77.48827 6005 ft 191 kts 89°
2026-04-23 14:55 13.20885 77.50185 6002 ft 190 kts 91°
2026-04-23 14:55 13.20869 77.51488 5984 ft 179 kts 91°
2026-04-23 14:55 13.20852 77.52745 5988 ft 178 kts 91°
2026-04-23 14:55 13.20840 77.54015 5939 ft 180 kts 90°
2026-04-23 14:56 13.20828 77.55270 5594 ft 174 kts 90°
2026-04-23 14:56 13.20818 77.56456 5287 ft 160 kts 90°
2026-04-23 14:56 13.20808 77.57586 5170 ft 160 kts 90°
2026-04-23 14:56 13.20799 77.58738 4950 ft 163 kts 90°
2026-04-23 14:57 13.20789 77.59907 4711 ft 161 kts 90°
2026-04-23 14:57 13.20780 77.61045 4497 ft 161 kts 90°
2026-04-23 14:57 13.20770 77.62199 4276 ft 161 kts 90°
2026-04-23 14:57 13.20760 77.63342 4058 ft 160 kts 90°
2026-04-23 14:58 13.20750 77.64475 3843 ft 160 kts 90°
2026-04-23 14:58 13.20741 77.65604 3615 ft 153 kts 90°
2026-04-23 14:58 13.20731 77.66679 3441 ft 153 kts 91°
2026-04-23 14:58 13.20722 77.67780 3214 ft 153 kts 90°
2026-04-23 14:59 13.20718 77.68823 3041 ft 143 kts 91°
2026-04-23 14:59 13.20720 77.69744 3010 ft 108 kts 93°
2026-04-23 14:59 13.20701 77.70316 3009 ft 56 kts 92°
2026-04-23 14:59 13.20656 77.70522 3009 ft 18 kts 121°
2026-04-23 15:00 13.20605 77.70605 3009 ft 8 kts 121°
2026-04-23 15:00 13.20579 77.70649 3009 ft 6 kts 121°
2026-04-23 15:00 13.20561 77.70681 3009 ft 5 kts 120°
2026-04-23 15:00 13.20541 77.70718 3009 ft 6 kts 117°
2026-04-23 15:01 13.20527 77.70767 3009 ft 7 kts 98°
2026-04-23 15:01 13.20525 77.70818 3009 ft 5 kts 88°
2026-04-23 15:01 13.20527 77.70864 3009 ft 7 kts 87°
2026-04-23 15:01 13.20525 77.70943 3009 ft 16 kts 93°
2026-04-23 15:02 13.20524 77.71038 3009 ft 22 kts 90°
2026-04-23 15:02 13.20523 77.71251 3009 ft 24 kts 91°
2026-04-23 15:02 13.20521 77.71450 3009 ft 27 kts 90°
2026-04-23 15:02 13.20519 77.71624 3009 ft 20 kts 91°
2026-04-23 15:03 13.20518 77.71763 3009 ft 19 kts 90°
2026-04-23 15:03 13.20518 77.71942 3009 ft 28 kts 90°
2026-04-23 15:03 13.20515 77.72115 3009 ft 12 kts 92°
2026-04-23 15:03 13.20483 77.72146 3009 ft 3 kts 201°
2026-04-23 15:04 13.20433 77.72120 3009 ft 11 kts 205°
2026-04-23 15:04 13.20358 77.72109 3009 ft 10 kts 181°
2026-04-23 15:04 13.20269 77.72109 3009 ft 15 kts 180°
2026-04-23 15:04 13.20162 77.72109 3009 ft 14 kts 180°
2026-04-23 15:05 13.20072 77.72107 3009 ft 11 kts 181°
2026-04-23 15:05 13.20003 77.72105 3009 ft 8 kts 188°
2026-04-23 15:05 13.19977 77.72080 3009 ft 4 kts 274°
2026-04-23 15:05 13.19974 77.72043 3009 ft 6 kts 261°
2026-04-23 15:06 13.19971 77.72008 3009 ft 0 kts 270°